Regional Weather Roundup
Issued by NWS Charleston, SC

Current Version | Previous Version | Text Only | Print | Product List | Glossary Off
Versions: 1 2 3 4 5 6 7 8 9 10 11 12 13 14 15 16 17 18 19 20 21 22 23 24 25 26 27 28 29 30 31 32 33 34 35 36 37 38 39 40 41 42 43 44 45 46 47 48 49 50
000 ASUS42 KCHS 172227 RWRCHS Regional Weather Roundup National Weather Service Charleston SC 500 PM EST SUN DEC 17 2017 NOTE: "fair" indicates few or no clouds below 12,000 feet with no significant weather and/or obstructions to visibility. Not all stations are quality controlled. Use data with caution, especially dewpoint observations. SCZ027-030-031-034>040-042>050-172300- ...Southeast South Carolina... CITY SKY/WX TMP DP RH WIND PRES REMARKS N Charleston MOCLDY 59 43 55 S5 30.22S Waterfront Prk N/A 57 50 77 SE5 30.08S Mount Pleasant FAIR 57 50 77 CALM 30.23S Johns Island FAIR 55 48 76 S3 30.23S Pinopolis N/A 54 48 82 CALM 30.14R Moncks Corner FAIR 55 41 58 CALM 30.21F Summerville FAIR 59 34 38 CALM 30.22F Beaufort MCAS CLOUDY 58 49 72 CALM 30.23S Beaufort Arpt FAIR 55 46 71 CALM 30.21F Hilton Head Is CLEAR 55 46 71 CALM 30.24R Walterboro CLOUDY 57 37 47 SE3 30.21F Allendale FAIR 61 36 39 CALM 30.18F ...Southern Midlands and Pee Dee... CITY SKY/WX TMP DP RH WIND PRES REMARKS Georgetown FAIR 54 48 82 CALM 30.24R Kingstree MOCLDY 54 34 47 CALM 30.22S Orangeburg CLOUDY 60 33 36 S5 30.20F Barnwell N/A 63 36 36 S3 30.18F Aiken CLOUDY 52 43 71 CALM 30.21F Manning CLOUDY 54 -38 2 MISG 30.22S Columbia CLOUDY 58 35 42 SE3 30.19F Sumter MOCLDY 56 32 39 S5 30.20R Florence CLOUDY 57 33 40 S3 30.21F Myrtle Beach PTCLDY 53 46 77 S6 30.24S N Myrtle Beach PTCLDY 53 46 77 S3 30.22S $$ GAZ063-065-086>088-099>101-113>116-118-119-134>141-150-172300- ...Southeast Georgia... CITY SKY/WX TMP DP RH WIND PRES REMARKS Savannah Arpt MOCLDY 63 46 54 E6 30.22S Hunter AAF MOCLDY 63 46 54 SE3 30.19F Fort Stewart PTCLDY 68 53 58 SE3 N/A Statesboro CLOUDY 61 41 47 CALM 30.19F Sylvania CLOUDY 62 46 54 CALM 30.19F Claxton FAIR 62 53 71 CALM 30.19F ...CSRA, Central and far Southeast Georgia... CITY SKY/WX TMP DP RH WIND PRES REMARKS Thomson CLOUDY 52 44 73 CALM 30.23R Augusta-Bush CLOUDY 60 36 40 CALM 30.17F Augusta-Daniel CLOUDY 58 35 42 NE3 30.17F Swainsboro FAIR 61 46 59 NE7 30.18R Vidalia CLOUDY 63 50 63 E5 30.17F Eastman FAIR 67 47 47 NW3 30.20R Hazlehurst FAIR 70 48 46 CALM 30.15F Alma PTCLDY 72 56 57 S6 30.18S Waycross CLEAR 70 55 59 S3 30.18F Jesup NOT AVBL Baxley FAIR 68 55 64 S5 30.17F Brunswick CLEAR 63 50 63 CALM 30.22R Saint Simons CLEAR 61 48 62 E5 30.21F $$ SCZ027-028-034-036>038-045-046-048>050-GAZ119-141-172300- ...Lake and Supplemental Coastal Observations... STATION/POSITION TIME TEMP WIND PRES WAVE SWELL AIR SEA DIR/SP/G HT/PER HT/PER/DIR (UTC) (F) (DEG/KT/KT) (MB) (FT/S) (FT/S/D) Winyah Bay 2145 54 130/ 3 1024.0S Lake Murray 2220 54 CALM / 2 1021.7 ACE Basin NERRS 2145 58 CALM 1024.0R Fort Pulaski 2200 54 53 1023.8 Sapelo Island 2200 62 100/ 5 1023.0 $$ ANZ835-935-AMZ111-154-330-350-352-354-370-450-454-472-172300- ...C-MAN and Buoy Observations... STATION/POSITION TIME TEMP WIND PRES WAVE SWELL AIR SEA DIR/SP/G HT/PER HT/PER/DIR (UTC) (F) (DEG/KT/KT) (MB) (FT/S) (FT/S/D) Buoy 41004 2210 63 73 10/ 2/ 2 1023.1 Buoy 41008 2150 60 60 20/ 4/ 4 1023.0F 2/ 9 2/110/ 9 Folly Beach CMAN 2200 54 110/ 3/ 3 1024.2F Capers Nearshore 2208 52 56 110/ 2/ 2 1023.4S STATION/POSITION TIME TEMP WIND PRES WAVE SWELL AIR SEA DIR/SP/G HT/PER HT/PER/DIR (UTC) (F) (DEG/KT/KT) (MB) (FT/S) (FT/S/D) 5E St. Marys GA 2200 63 N/A 2/10 Frying Pan Buoy 2210 60 69 20/ 2/ 4 1023.2 Buoy 41025 2210 60 72 270/ 10/ 14 1024.0 Cape Lookout NC 2200 10/ 2/ 2 1024.1R Buoy 41002 2150 66 74 240/ 8/ 10 1024.9R 2/ 9 2/ 60/ 9 Buoy 41010 NOT AVBL St Augustine FL 2200 66 65 20/ 1/ 1 1023.1R $$

USA.gov is the U.S. government's official web portal to all federal, state and local government web resources and services.